USTRANSCOM 7523


KCOF
Patrick Air Force Base
Cocoa Beach, Florida, US
TBPB
Grantley Adams International Airport
Bridgetown, , BB

Route Details

Aircraft Information
Primary: Boeing 757-200SF
Backup: Not Available
Route Data
Distance: 1490nm
Sched. Duration: 3h 45m
Avg. Duration: 3h 25m (-20m)
Times Flown: 1
Recm'd Route: TEDAE VENDS BRRGO BR1L GTK L452 BQN RTE4 COY A555 BG
Planned Altitude: 35,000ft
Origin Wx: KCOF 310556Z AUTO 17009KT 10SM CLR 24/20 A2995 RMK AO2 SLP147 T02400201 10254 20240 57016 $
Dest. Wx: TBPB 310500Z 05014KT 9999 -SHRA SCT016 BKN036 24/20 Q1013 NOSIG
Notes: USTRANSCOM CONTRACT FLIGHT

Financial History
Total Freight: 44,913lbs
Average Load: 44,913lbs/flt
Fuel Used: 26,593lbs
Avg. Fuel Used: 26,593lbs/flt
Fuel Expense: $24,466
Avg. Fuel Expense: $24,466
Avg. Fuel Cost: $0.92/lbs
Total Gross Income: $62,429
Pilot Pay: $229
Total Expenses: $6,794
Total Revenue: $30,353
Average Revenue: $62,429.07